Regional Weather Roundup
Issued by NWS Wakefield, VA

Home | Current Version | Previous Version | Graphics & Text | Print | Product List | Glossary On
Versions: 1 2 3 4 5 6 7 8 9 10 11 12 13 14 15 16 17 18 19 20 21 22 23 24 25 26 27 28 29 30 31 32 33 34 35 36 37 38 39 40 41 42 43 44 45 46 47 48 49 50
136
ASUS41 KAKQ 231715
RWRAKQ

REGIONAL WEATHER ROUNDUP
NATIONAL WEATHER SERVICE WAKEFIELD VA
100 PM EDT MON MAY 23 2016

Note: "fair" indicates few or no clouds below 12,000 feet with no
significant weather and/or obstructions to visibility. * = Denotes
station may not report precipitation (e.g., rain,snow,etc.),
thunder or fog.

VAZ042-051-052>054-056-231800-
NORTHERN VIRGINIA

CITY           SKY/WX    TMP DP  RH WIND       PRES   REMARKS
WASH NATIONAL  PTSUNNY   71  54  54 CALM      29.94F
DULLES         PTSUNNY   71  55  56 VRB3      29.96F
FORT BELVOIR   PTSUNNY   71  56  59 W7        29.95F
QUANTICO       PTSUNNY   70  56  61 NW6       29.96F
FREDERICKSBRG* NOT AVBL
STAFFORD*      PTSUNNY   69  56  64 W5        30.00S
WARRENTON      FAIR      71  49  46 NW7       29.96F
CULPEPER*      FAIR      70  56  62 CALM      29.98F
MANASSAS*      PTSUNNY   72  55  56 NW7       29.97S
LEESBURG*      FAIR      72  59  64 NW5       29.97F
WINCHESTER     FAIR      72  54  53 NE3       29.98F
FRONT ROYAL*   PTSUNNY   66  54  63 N5        29.97F
LURAY*         PTSUNNY   68  55  64 CALM      29.99F
$$

VAZ048-049-060>072-079>083-231800-
CENTRAL AND SOUTH CENTRAL VIRGINIA

CITY           SKY/WX    TMP DP  RH WIND       PRES   REMARKS
RICHMOND       PTSUNNY   60  53  77 N8        29.96R
CHESTERFIELD*  PTSUNNY   61  43  51 N6        29.98R
PETERSBURG*    CLOUDY    62  52  71 N8        29.96S
HANOVER        PTSUNNY   66  57  72 CALM      29.97F
TAPPAHANNOCK*  FAIR      65  62  89 NW6       29.96F
QUINTON*       CLOUDY    58  53  83 N5        29.95R
CHARLOTTSVILLE PTSUNNY   67  52  58 VRB5      29.99F
GORDONSVILLE*  CLOUDY    65  55  69 CALM      29.98S
ORANGE*        PTSUNNY   68  55  64 CALM      30.00S
LOUISA*        PTSUNNY   70  57  64 NW6       29.98S
BUMPASS*       PTSUNNY   67  56  69 NW6       29.97F
FARMVILLE*     CLOUDY    68  52  56 NE9       29.98F
CREWE*         CLOUDY    63  55  73 N5        29.98S
FORT PICKETT*  NOT AVBL
CHASE CITY*    CLOUDY    62  52  67 N7        29.99S
CLARKSVILLE*   CLOUDY    61  54  77 N6        29.98F
SOUTH HILL*    CLOUDY    63  54  72 N12G18    30.02S
LAWRENCEVILLE* PTSUNNY   65  54  67 N13G21    29.96R
EMPORIA*       PTSUNNY   63  52  67 NW13G18   29.95R
$$

VAZ088>098-231800-
SOUTHEAST VIRGINIA

CITY           SKY/WX    TMP DP  RH WIND       PRES   REMARKS
NORFOLK        FAIR      64  55  72 NE18      29.89S
VIRGINIA BEACH PTSUNNY   66  52  60 NE16G29   29.88S
NORFOLK NAVAL  PTSUNNY   66  56  70 N18       29.91S
WEST POINT*    CLOUDY    62  55  76 N6        29.94F
SALUDA*        CLOUDY    60  57  90 N8        29.92F
NEWPORT NEWS   PTSUNNY   66  55  67 NE13G23   29.90S
LANGLEY AFB    PTSUNNY   64  57  79 NE15G22   29.90R
FORT EUSTIS    PTSUNNY   67  54  64 NE13G21   29.89R
WILLIAMSBURG*  FAIR      64  59  82 NE7       29.92R
HR EXEC AP*    PTSUNNY   64  55  72 NE14G22   29.92S
FRANKLIN*      CLOUDY    65  53  63 NE12      29.92R
US460-WAKEFLD  PTSUNNY   67  54  63 N10G20    29.92S
$$

VAZ020-022-025-037-045-231800-
WEST CENTRAL AND SOUTHWEST VIRGINIA

CITY           SKY/WX    TMP DP  RH WIND       PRES   REMARKS
STAUNTON*      FAIR      70  56  63 CALM      30.02F
WAYNESBORO*    CLOUDY    61  53  74 SE5       30.02F
HOT SPRINGS VA CLOUDY    55  49  81 W6        30.05F
LYNCHBURG      FAIR      64  50  60 CALM      30.02F
DANVILLE       CLOUDY    62  50  64 N10G20    30.01F
SOUTH BOSTON*  CLOUDY    63  53  69 N12G18    30.00S
MARTINSVILLE   FAIR      64  51  64 NE12G17   30.04F
ROANOKE        CLOUDY    64  50  60 VRB3      30.04F
BLACKSBURG     CLOUDY    60  49  66 N6        30.08F
DUBLIN*        CLOUDY    62  50  64 N5        30.06F
MARION*        CLOUDY    61  47  59 N5        30.08F
HILLSVILLE*    CLOUDY    58  49  73 N9        30.04F
RICHLANDS*     PTSUNNY   58  34  39 N6        30.08F
WISE*          PTSUNNY   63  43  48 NE10G17   30.10F
ABINGDON*      PTSUNNY   63  49  59 NE3       30.07F
$$

MDZ021>025-VAZ099-100-231800-
SOUTHERN MARYLAND AND THE DELMARVA PENINSULA

CITY           SKY/WX    TMP DP  RH WIND       PRES   REMARKS
PATUXENT RIVER CLOUDY    64  55  72 NW9       29.94F
BAY BRIDGE APT MOSUNNY   68  57  68 NW5       29.93F
LEONARDTOWN    CLOUDY    63  55  77 W3        29.96F
DOVER          MOSUNNY   69  58  66 NE6       29.88F
GEORGETOWN     MOSUNNY   65  53  65 VRB6      29.93F
EASTON         PTSUNNY   68  61  77 NW5       29.97F
CAMBRIDGE      MOSUNNY   63  55  77 NW6       29.93S
SALISBURY      CLOUDY    64  52  64 E9        29.92S
OCEAN CITY     CLOUDY    60  50  69 NE10      29.92R
WALLOPS ISLAND PTSUNNY   63  52  67 NE16      29.92S
ACCOMACK*      CLOUDY    64  55  72 N8        29.91S
$$

NCZ012>017-030>032-231800-
NORTH CENTRAL AND EASTERN NORTH CAROLINA

CITY           SKY/WX    TMP DP  RH WIND       PRES   REMARKS
ROANOKE RAPIDS CLOUDY    63  52  67 N10G16    29.93S
RALEIGH        CLOUDY    62  56  80 VRB7      29.98S
ELIZABETH CITY CLOUDY    63  56  78 N16       29.89R
AHOSKIE*       PTSUNNY   63  52  67 N10       29.92R
EDENTON*       CLOUDY   N/A N/A N/A N10       29.91R
CURRITUCK*     CLOUDY    62  56  82 N17       29.89S
KILL DEVIL HLS CLOUDY    59  56  88 N10G17    29.87R
MANTEO         CLOUDY    58  58  97 NE13G20   29.88R
CAPE HATTERAS  SUNNY     65  53  65 NW10      29.88F
TARBORO*       CLOUDY    64  56  77 N5        29.94R
GOLDSBORO      PTSUNNY   64  63  94 NW12      29.92F
WASHINGTON     RAIN      59  58  94 W3        29.91S
GREENVILLE     CLOUDY    61  59  94 NE10      29.94S
NEW BERN       CLOUDY    62  54  74 W9        29.93S
WILMINGTON     CLOUDY    68  52  56 NW15G21   29.94S
$$

VAZ048-231800-
ELSEWHERE

CITY           SKY/WX    TMP DP  RH WIND       PRES   REMARKS
HARRISBURG PA  PTSUNNY   71  56  58 W9        29.93F
BALTIMORE      PTSUNNY   71  53  52 VRB5      29.93F
ANNAPOLIS      CLOUDY    68  58  70 N3        29.93F
ANDREWS AFB    PTSUNNY   69  56  62 W5        29.94F
PHILADELPHIA   PTSUNNY   74  52  46 E8        29.91F
HENDERSON NC   MOSUNNY   60  52  74 N10G16    29.98F
GREENSBORO     CLOUDY    64  50  60 NE13G20   30.00F
ROCKY MOUNT    CLOUDY    60  56  86 N10       29.95S
$$

VAZ100-231800-
MARINE

STATION/POSITION TIME  TEMP    WIND        PRES    WAVE   SWELL
                       AIR SEA DIR/SP/G            HT/PER HT/PER
                 (UTC) (F)     (DEG/KT/KT) (MB)    (FT/S) (FT/S)
BRANDYWINE LGT   1600   60     350/  5/  6 1013.4F
CAPE MAY NJ      1600   65 62   60/ 10/ 13 1013.0F
LEWES DE         1600   60 59   60/ 11/ 13 1013.3F
15NM E FENWICK I 1650   57 55              1012.4F   5/ 8
WACHAPREAGUE VA  1600   61 63   60/ 14/ 17 1012.5R
THOMAS POINT MD  1700   63 61  140/  4/  4 1014.9F
GOOSES REEF MD   1700   62 61  100/  2/  2 1015.0F   1
COVE POINT MD    1600   61     350/ 10/ 14 1014.4R
SOLOMONS ISLAND  1600   62 62  320/  6/  7   N/A
BISHOPS HEAD MD  1600   63 61   10/ 10/ 13 1013.8R
PINEY POINT MD   1600          330/ 10/ 10   N/A
POTOMAC MD       1700   63 62  360/ 10/ 12 1012.7F   1
CAMBRIDGE MD     1600   62 62  330/  7/  8 1013.0R
LEWISETTA VA     1600   61 63  350/  7/ 11 1013.7R
RAPPAHANNOCK LGT 1600          360/ 19/ 21 1013.3F
STINGRAY PT      1700   62 63   20/ 16/ 19 1013.4F   2/ 3
YORK RVR RNG VA  1600   61      30/ 19/ 21 1011.9F
YORKTOWN VA      1600   62 64   30/ 15/ 19 1012.4F
JAMESTOWN VA     1700   61 66  350/  8/ 12   N/A     0
DOMINION TERM VA 1600   62      40/  8/ 14 1012.5R
KIPTOPEKE VA     1600      63   30/  9/ 14   N/A
CHES BAY BRIDGE  1600   60 63  360/ 19/ 23 1011.7R
CAPE HENRY VA    1600   60      20/ 22/ 24   N/A
CHESAPEAKE LGHT  1600   57      20/ 24/ 27 1011.9F
WILLOUBY STN VA  1600   61      20/ 18/ 21 1013.3R
CAPE HENRY BUOY  1612      58                N/A     5/ 5
1ST LANDING BUOY 1700   60 61   40/ 16/ 19 1012.2R   4/ 4
CAPE CHARLES BUO 1626      59                N/A     5/ 5   2/ 8
OFFSHORE WE BUOY 1621      58                N/A     6/ 5   3/ 9
64NM E OF VA BCH 1650   57 68  360/ 17/ 21 1010.1F   7/ 8   3/ 8
DUCK PIER NC     1600   56 62   10/ 18/ 23 1010.4S
44100 DUCK FRF   1624      58                N/A     4/ 8   2/12
44056 DUCK FRF   1611      62                N/A     4/ 9   2/11
OREGON INLET NC  1600   61 64  310/ 10/ 13 1011.0R
HATTERAS NC      1600   61 67  270/  9/ 10 1011.6R
DIAMOND SHLS NC  1650   61 66  290/ 14/ 16 1011.8F   3/ 8   2/ 8
CAPE LOOKOUT NC  1700   63     300/ 13/ 15 1012.C1F1C2F2C3F3C4F4C5F5C6F6C7F7C8M1C9!



USA.gov is the U.S. government's official web portal to all federal, state and local government web resources and services.